Time,TemperatureF,DewpointF,PressureIn,WindDirection,WindDirectionDegrees,WindSpeedMPH,WindSpeedGustMPH,Humidity,HourlyPrecipIn,Conditions,Clouds,dailyrainin,SoftwareType,DateUTC
2013-07-09 00:00:00,48.0,-99.9,-100.00,NNE,33,1.0,2.0,-999,-99.99,,,0.00,,2013-07-09 06:00:00,
2013-07-09 00:53:00,48.0,-99.9,-100.00,NNE,33,1.0,2.0,-999,-99.99,,,0.00,,2013-07-09 06:53:00,
2013-07-09 01:00:00,50.0,-99.9,-100.00,North,-999,-999.0,-999.0,-999,-99.99,,,0.01,,2013-07-09 07:00:00,
2013-07-09 02:00:00,49.0,-99.9,-100.00,NNW,345,1.0,6.0,-999,-99.99,,,0.00,,2013-07-09 08:00:00,
2013-07-09 03:00:00,49.0,-99.9,-100.00,NNW,343,1.0,3.0,-999,-99.99,,,0.00,,2013-07-09 09:00:00,
2013-07-09 03:53:00,49.0,-99.9,-100.00,NNW,343,1.0,3.0,-999,-99.99,,,0.00,,2013-07-09 09:53:00,
2013-07-09 04:00:00,48.0,-99.9,-100.00,NNE,17,1.0,2.0,-999,-99.99,,,0.00,,2013-07-09 10:00:00,
2013-07-09 05:00:00,49.0,-99.9,-100.00,North,1,1.0,4.0,-999,-99.99,,,0.00,,2013-07-09 11:00:00,
2013-07-09 05:53:00,49.0,-99.9,-100.00,North,1,1.0,4.0,-999,-99.99,,,0.00,,2013-07-09 11:53:00,
2013-07-09 06:00:00,45.0,-99.9,-100.00,NNE,16,2.0,4.0,-999,-99.99,,,0.00,,2013-07-09 12:00:00,
2013-07-09 06:53:00,45.0,-99.9,-100.00,NNE,16,2.0,4.0,-999,-99.99,,,0.00,,2013-07-09 12:53:00,
2013-07-09 07:00:00,47.0,-99.9,-100.00,North,-999,-999.0,-999.0,-999,-99.99,,,0.00,,2013-07-09 13:00:00,
2013-07-09 07:53:00,47.0,-99.9,-100.00,North,-999,-999.0,-999.0,-999,-99.99,,,0.00,,2013-07-09 13:53:00,
2013-07-09 08:00:00,53.0,-99.9,-100.00,North,5,1.0,3.0,-999,-99.99,,,0.00,,2013-07-09 14:00:00,
2013-07-09 08:53:00,53.0,-99.9,-100.00,North,5,1.0,3.0,-999,-99.99,,,0.00,,2013-07-09 14:53:00,
2013-07-09 09:00:00,56.0,-99.9,-100.00,North,-999,-999.0,-999.0,-999,-99.99,,,0.00,,2013-07-09 15:00:00,
2013-07-09 11:00:00,63.0,-99.9,-100.00,North,-999,-999.0,-999.0,-999,-99.99,,,0.00,,2013-07-09 17:00:00,
2013-07-09 12:00:00,59.0,-99.9,-100.00,North,-999,-999.0,-999.0,-999,-99.99,,,0.00,,2013-07-09 18:00:00,
2013-07-09 13:00:00,64.0,-99.9,-100.00,North,-999,-999.0,-999.0,-999,-99.99,,,0.00,,2013-07-09 19:00:00,
2013-07-09 17:00:00,63.0,-99.9,-100.00,North,-999,-999.0,-999.0,-999,-99.99,,,0.00,,2013-07-09 23:00:00,
2013-07-09 17:53:00,63.0,-99.9,-100.00,North,-999,-999.0,-999.0,-999,-99.99,,,0.00,,2013-07-09 23:53:00,
2013-07-09 18:00:00,56.0,-99.9,-100.00,North,-999,-999.0,-999.0,-999,-99.99,,,0.00,,2013-07-10 00:00:00,
2013-07-09 19:00:00,55.0,-99.9,-100.00,NNE,22,3.0,4.0,-999,-99.99,,,0.00,,2013-07-10 01:00:00,
2013-07-09 19:53:00,55.0,-99.9,-100.00,NNE,22,3.0,4.0,-999,-99.99,,,0.00,,2013-07-10 01:53:00,
2013-07-09 20:00:00,53.0,-99.9,-100.00,North,-999,-999.0,-999.0,-999,-99.99,,,0.00,,2013-07-10 02:00:00,
2013-07-09 21:00:00,50.0,-99.9,-100.00,North,-999,-999.0,-999.0,-999,-99.99,,,0.00,,2013-07-10 03:00:00,
2013-07-09 21:52:00,50.0,-99.9,-100.00,North,-999,-999.0,-999.0,-999,-99.99,,,0.00,,2013-07-10 03:52:00,
2013-07-09 22:00:00,50.0,-99.9,-100.00,SSE,152,2.0,4.0,-999,-99.99,,,0.00,,2013-07-10 04:00:00,
2013-07-09 23:00:00,48.0,-99.9,-100.00,SSE,164,3.0,4.0,-999,-99.99,,,0.00,,2013-07-10 05:00:00,
2013-07-09 23:42:00,48.0,-99.9,-100.00,SSE,164,3.0,4.0,-999,-99.99,,,0.00,,2013-07-10 05:42:00,
2013-07-09 23:53:00,48.0,-99.9,-100.00,SSE,164,3.0,4.0,-999,-99.99,,,0.00,,2013-07-10 05:53:00,